Regional Weather Roundup
Issued by NWS

Home | Current Version | Previous Version | Graphics & Text | Print | Product List | Glossary On
Versions: 1 2 3 4 5 6 7 8 9 10 11 12 13 14 15 16 17 18 19 20 21 22 23 24 25 26 27 28 29 30 31 32 33 34 35 36 37 38 39 40 41 42 43 44 45 46 47 48 49 50
000
ASUS43 KMPX 060001
RWRMN
WEATHER ROUNDUP FOR MINNESOTA
NATIONAL WEATHER SERVICE TWIN CITIES/CHANHASSEN MN
600 PM CST MON DEC 05 2016


NOTE: "FAIR" INDICATES FEW OR NO CLOUDS BELOW 12,000 FEET WITH NO
SIGNIFICANT WEATHER AND/OR OBSTRUCTIONS TO VISIBILITY. N/A MEANS
CURRENT SKY AND/OR WEATHER CONDITIONS ARE NOT AVAILABLE.

MNZ060>063-068>070-060100-
   Twin Cities Metro

CITY           SKY/WX    TMP DP  RH WIND       PRES   REMARKS
TWIN CITIES    CLOUDY    38  31  76 S16G28    29.66S
6HR MIN TEMP:  37; 6HR MAX TEMP:  39; 6HR PCP: TRACE;

ST PAUL        CLOUDY    37  32  82 S17G24    29.68S
CRYSTAL        CLOUDY    38  30  73 S13       29.65R
BLAINE         CLOUDY    39  36  87 S15G23    29.65R
LAKEVILLE      CLOUDY    36  32  87 SE12G22   29.66S
EDEN PRAIRIE   CLOUDY    39  31  72 SE14      29.63S
6HR MIN TEMP:  39; 6HR MAX TEMP:  40; 6HR PCP: TRACE;

SOUTH ST PAUL  CLOUDY    37  32  81 SE12G17   29.67S
LAKE ELMO      CLOUDY    36  32  87 SE10      29.68F
$$
MNZ001>005-007-008-013>017-022>024-027-028-060100-
   Northwest Minnesota

CITY           SKY/WX    TMP DP  RH WIND       PRES   REMARKS
BEMIDJI        LGT SNOW  30  29  97 E16       29.57F WCI  19
HALLOCK        CLOUDY    30  28  93 NE14      29.63F WCI  20
ROSEAU         CLOUDY    30  27  86 E15G22    29.66S WCI  19
WARROAD        CLOUDY    30  27  86 E18G24    29.67F WCI  18
THIEF RVR FALL CLOUDY    29  27  92 E16       29.59F WCI  17
CROOKSTON      CLOUDY    30  28  93 E10       29.58F WCI  21
FOSSTON        FLURRIES  28  27  93 E7        29.56S WCI  21
DETROIT LAKES  CLOUDY    32  32 100 SE12      29.50F WCI  23
MOORHEAD       CLOUDY    34  30  86 E7        29.50F WCI  28
PARK RAPIDS    SNOW      32  28  85 E13       29.53F VSB 1/2 WCI  22
$$
MNZ006-009>011-018-025>026-060100-
   North Central Minnesota

CITY           SKY/WX    TMP DP  RH WIND       PRES   REMARKS
BAUDETTE       CLOUDY    30  25  81 E16       29.67F WCI  19
FLAG ISLAND    CLOUDY    30  27  86 NE8       29.69S WCI  23
INTL FALLS     CLOUDY    30  25  81 E9        29.72R WCI  22
6HR MIN TEMP:  30; 6HR MAX TEMP:  31;

WASKISH        CLOUDY    30  27  86 E12G22    29.64F WCI  21
BIG FORK       LGT SNOW  30  27  86 E8        29.66F WCI  23
LONGVILLE      LGT SNOW  32  30  93 E5        29.59F WCI  27
GRAND RAPIDS   LGT SNOW  31  30  96 VRB7      29.65F VSB 1   WCI  24
CRANE LAKE     CLOUDY    28  27  93 E3        29.76F
ORR            CLOUDY    28  25  86 CALM      29.69F
COOK           CLOUDY    28  27  93 E6        29.71F WCI  22
$$
MNZ012-019>021-037-060100-
   Northeast Minnesota

CITY           SKY/WX    TMP DP  RH WIND       PRES   REMARKS
DULUTH         LGT SNOW  33  32  96 E17G24    29.69F VSB 3/4 WCI  22
6HR MIN TEMP:  32; 6HR MAX TEMP:  34; 6HR PCP:  0.13;

ELY            CLOUDY    28  27  93 E7        29.74F WCI  21
HIBBING        SNOW      30  29  96 E16G24    29.65F VSB 1/2 WCI  19
EVELETH        LGT SNOW  32  31  96 E8        29.71F VSB 1   WCI  25
DULUTH HARBOR  LGT RAIN  36  36 100 E18       29.73F
TWO HARBORS    LGT SNOW  36  30  80 E10       29.75S
SILVER BAY     CLOUDY    34  30  86 NE5       29.77S WCI  30
GRAND MARAIS     N/A     36  29  75 SE8       29.86R
G MARAIS ARPRT CLOUDY    27  21  80 SE5       29.81R WCI  21
$$
MNZ029>031-032-039>041-046>048-054>057-064-060100-
   West Central Minnesota

CITY           SKY/WX    TMP DP  RH WIND       PRES   REMARKS
FERGUS FALLS   CLOUDY    36  30  80 SE12      29.50F
WHEATON        MOCLDY    36  34  93 SE10      29.48F
MORRIS         CLOUDY    36  34  93 SE12      29.46F
ALEXANDRIA     MOCLDY    34  33  96 SE15      29.49F WCI  24
ELBOW LAKE     MOCLDY    34  32  92 SE10      29.47F WCI  26
WADENA         CLOUDY    32  30  93 E9        29.51F WCI  24
GLENWOOD       PTCLDY    36  34  93 SE9       29.50F
APPLETON       CLOUDY    37  34  87 S8        29.48S
BENSON         CLOUDY    37  34  87 S13       29.49F
ORTONVILLE     MOCLDY    34  30  86 CALM      29.47S
MADISON        MOCLDY    37  37 100 SW13      29.50R
WILLMAR        MOCLDY    39  36  87 S7        29.53F
$$
MNZ033>034-036-042>043-049>051-058-059-060100-
   Central Minnesota

CITY           SKY/WX    TMP DP  RH WIND       PRES   REMARKS
ST CLOUD       CLOUDY    37  33  85 SE13      29.56F
6HR MIN TEMP:  34; 6HR MAX TEMP:  37; 6HR PCP:  0.02;

PAYNESVILLE    CLOUDY    39  38  97 S14G21    29.54S
AITKIN         CLOUDY    36  30  80 E8        29.60F
PINE RIVER     MIX PCPN  32  32 100 E13       29.61F WCI  22
BRAINERD       CLOUDY    34  32  92 E8G20     29.57F WCI  27
STAPLES        CLOUDY    32  30  93 E6        29.54F WCI  26
LONG PRAIRIE   CLOUDY    32  32 100 E12       29.53S WCI  23
LITTLE FALLS   CLOUDY    34  32  93 E12       29.56F WCI  25
LITCHFIELD     CLOUDY    41  37  87 SE8G23    29.56S
BUFFALO        CLOUDY    39  32  75 SE15G21   29.61F
MAPLE LAKE     CLOUDY    39  35  83 SE13G18   29.60S
$$
MNZ037-044-045-052-053-060100-
   East Central Minnesota

CITY           SKY/WX    TMP DP  RH WIND       PRES   REMARKS
PRINCETON      CLOUDY    37  34  87 SE14      29.61F
MORA           CLOUDY    34  32  93 E8        29.65F WCI  27
CAMBRIDGE      CLOUDY    37  28  70 SE7       29.62F
RUSH CITY      PTCLDY    36  32  87 SE9       29.66S
MOOSE LAKE     CLOUDY    34  32  93 SE5       29.66F WCI  30
HINCKLEY       CLOUDY    34  32  93 E6        29.66F WCI  29
CLOQUET        CLOUDY    34  30  86 E12       29.68S WCI  25
MCGREGOR       CLOUDY    34  32  93 SE10      29.64F WCI  26
$$
MNZ071>073-080-081-089-090-097-098-060100-
   Southwest Minnesota

CITY           SKY/WX    TMP DP  RH WIND       PRES   REMARKS
MONTEVIDEO     PTCLDY    37  34  87 SW9       29.52S
GRANITE FALLS  MOCLDY    40  36  85 SE14      29.54S
CANBY          MOCLDY    39  32  76 W22G29    29.53R
MARSHALL       PTCLDY    42  34  73 SW18G30   29.53
REDWOOD FALLS  MOCLDY    42  34  73 S17       29.55F
OLIVIA         PTCLDY    41  34  75 S12       29.54S
PIPESTONE      MOCLDY    37  32  81 W15G21    29.58R
WINDOM         PTCLDY    43  36  75 S13G22    29.58R
WORTHINGTON    PTCLDY    40  35  83 SW23      29.58R
JACKSON        PTCLDY    41  32  70 S18G28    29.61R
TRACY          CLOUDY    42  36  79 SW23G29   29.55R
SLAYTON        PTCLDY    38  35  86 S20       29.56R
$$
MNZ065>067-074>077-082>085-091>093-060100-
   South Central Minnesota

CITY           SKY/WX    TMP DP  RH WIND       PRES   REMARKS
NEW ULM        MOCLDY    41  36  81 S16G22    29.58S
ST JAMES       MOCLDY    43  37  81 S14G23    29.62R
FAIRMONT       CLOUDY    42  37  82 S18       29.63R
GLENCOE        CLOUDY    40  37  87 SE12      29.60R
FARIBAULT      CLOUDY    37  32  81 SE13      29.65F
OWATONNA       CLOUDY    37  30  75 SE18G29   29.64F
WASECA         CLOUDY    36  32  87 SE15G21   29.65R
ALBERT LEA     PTCLDY    39  37  93 S18G30    29.65F
$$
MNZ078>079-086>088-094>096-060100-
   Southeast Minnesota

CITY           SKY/WX    TMP DP  RH WIND       PRES   REMARKS
ROCHESTER      CLOUDY    34  31  88 S18       29.70F WCI  23
6HR MIN TEMP:  33; 6HR MAX TEMP:  34;

RED WING       CLOUDY    37  30  75 S5        29.72R
STANTON        CLOUDY    37  32  79 SE12      29.66S
DODGE CENTER   CLOUDY    34  30  86 SE23      29.67S WCI  22
WINONA         CLOUDY    36  32  87 SE13      29.77F
AUSTIN         CLOUDY    34  30  86 S14G23    29.69R WCI  24
PRESTON        CLOUDY    33  29  88 SE13G20   29.74S WCI  23
$$
ABBREVIATIONS USED IN REMARKS
   TC - TEMPERATURES IN CELSIUS
  WCI - WIND CHILL INDEX
   HX - HEAT INDEX
  VSB - VISIBILITY
$$




USA.gov is the U.S. government's official web portal to all federal, state and local government web resources and services.